Flag for Russia Weather past 2 weeks in Saint-Petersburg, Russia

Now
59 °F

Broken clouds.


Feels Like: 56 °F
Forecast: 43 / 67 °F
Wind: 15 mph from West

Location: St. Petersburg

Current Time: May 24, 2015 at 7:20:28 PM

Latest Report: May 24, 2015 at 7:00 PM


Visibility: N/A

Pressure: 29.92 "Hg

Humidity: 42%

Dew point: 36 °F

Location of Saint-PetersburgLocation

Historic Weather in Saint-Petersburg — Graph

°F

Saint-Petersburg temperature yesterday

Maximum temperature yesterday: 68 °F (at 1:00 PM)
Minimum temperature yesterday: 45 °F (at 5:00 AM)
Average temperature yesterday: 55 °F

Past Weeks' High & Low Weather Summary

 TemperatureHumidityPressure
High68 °F (May 12, 4:30 PM)100% (May 19, 12:30 AM)30.18 "Hg (May 19, 12:30 AM)
Low34 °F (May 12, 4:30 AM)26% (May 10, 6:30 PM)29.47 "Hg (May 14, 1:30 AM)
Average51 °F70%29.83 "Hg
* Reported May 9 6:00 PM — May 24 6:00 PM, Saint-Petersburg, Weather by CustomWeather, © 2015

Note: Actual official high and low records may vary slightly from our data, if they occured in-between our weather recording intervals... More about our weather records

Advertising

Saint-Petersburg weather history for previous 24 hours

 ConditionsComfort  
Time TempWeatherWind HumidityBarometerVisibility
6:00 PM
Sun, May 24
57 °FPartly sunny.10 mph51%29.92 "HgN/A
5:30 PM57 °FPartly sunny.6 mph59%29.92 "HgN/A
5:00 PM54 °FSprinkles. Partly sunny.6 mph67%29.92 "HgN/A
4:30 PM54 °FBroken clouds.13 mph58%29.92 "HgN/A
4:00 PM57 °FBroken clouds.6 mph48%29.92 "HgN/A
3:30 PM59 °FBroken clouds.15 mph34%29.92 "HgN/A
3:00 PM61 °FPassing clouds.17 mph31%29.92 "HgN/A
2:30 PM61 °FPassing clouds.13 mph36%29.92 "HgN/A
2:00 PM59 °FPassing clouds.13 mph36%29.92 "HgN/A
1:30 PM63 °FSunny.15 mph32%29.92 "Hg10 mi
1:00 PM61 °FPassing clouds.13 mph36%29.92 "HgN/A
12:30 PM61 °FSunny.13 mph34%29.92 "Hg10 mi
12:00 PM59 °FPassing clouds.13 mph39%29.95 "HgN/A
11:30 AM57 °FSunny.15 mph36%29.95 "Hg10 mi
11:00 AM57 °FPassing clouds.10 mph41%29.95 "HgN/A
10:30 AM55 °FPassing clouds.10 mph44%29.95 "HgN/A
10:00 AM55 °FSunny.8 mph51%29.95 "Hg10 mi
9:30 AM54 °FPassing clouds.8 mph54%29.95 "HgN/A
9:00 AM52 °FPassing clouds.6 mph62%29.95 "HgN/A
8:30 AM50 °FPassing clouds.8 mph67%29.95 "HgN/A
8:00 AM50 °FPassing clouds.6 mph67%29.95 "HgN/A
7:30 AM48 °FSunny.10 mph76%29.95 "Hg10 mi
7:00 AM46 °FSunny.10 mph82%29.95 "Hg10 mi
6:30 AM45 °FPassing clouds.8 mph87%29.95 "HgN/A
6:00 AM45 °FPassing clouds.6 mph81%29.95 "HgN/A
5:30 AM43 °FSunny.6 mph87%29.92 "Hg10 mi
5:00 AM41 °FPassing clouds.3 mph87%29.92 "HgN/A
4:30 AM39 °FClear.3 mph87%29.92 "Hg10 mi
4:00 AM41 °FClear.1 mph87%29.92 "Hg10 mi
3:30 AM41 °FClear.3 mph87%29.92 "Hg10 mi
3:00 AM39 °FClear.3 mph93%29.92 "Hg10 mi
2:30 AM39 °FClear.6 mph93%29.92 "Hg10 mi
2:00 AM43 °FPassing clouds.3 mph81%29.92 "HgN/A
1:30 AM45 °FClear.8 mph81%29.89 "Hg10 mi
1:00 AM45 °FClear.8 mph81%29.89 "Hg10 mi
12:30 AM48 °FPartly cloudy.13 mph71%29.89 "HgN/A
12:00 AM48 °FPartly cloudy.10 mph71%29.89 "HgN/A
11:30 PM
Sat, May 23
48 °FMostly cloudy.13 mph71%29.89 "HgN/A
11:00 PM48 °FMostly cloudy.13 mph76%29.89 "HgN/A
10:30 PM50 °FSprinkles. Mostly cloudy.10 mph76%29.89 "HgN/A
10:00 PM52 °FSprinkles. Mostly cloudy.8 mph88%29.86 "HgN/A
9:30 PM52 °FSprinkles. Mostly cloudy.8 mph88%29.86 "HgN/A
9:00 PM52 °FMostly cloudy.8 mph88%29.86 "HgN/A
8:30 PM52 °FMostly cloudy.8 mph94%29.86 "HgN/A
8:00 PM54 °FLight rain. Mostly cloudy.8 mph88%29.86 "HgN/A
7:30 PM54 °FMostly cloudy.10 mph82%29.86 "HgN/A
7:00 PM54 °FMostly cloudy.13 mph82%29.86 "HgN/A
Weather by CustomWeather, © 2015

See weather overviewHow to use our weather pages